sat.trackr.live / text

‹ back to catalog

STARLINK-30790

NORAD 58127 · 2023-162K

PAYLOAD ACTIVE UNKNOWN

§ Identity

Operator
Country
US
Launch date
2023-10-22
Launch site
AFETR
Launch vehicle
Mass (kg)
RCS (m²)

Purposes: comms

External: N2YO · Heavens-Above · Gunter

§ Orbital elements

Epoch: 2026-09-20T08:12:37.018368Z

Period
94.44 min
Inclination
42.9992°
Eccentricity
0.0023684
Mean motion
15.24782488 rev/d
Perigee alt
475.2 km
Apogee alt
507.7 km
Semi-major
6,869.6 km
B*
1.1229e-3
RAAN
122.0004°
Arg perigee
219.2694°
Mean anomaly
140.6439°
Rev number
16,197

§ Raw data

STARLINK-307901 58127U 23162K   26263.34209512  .00028466  00000+0  11229-2 0  99942 58127  42.9992 122.0004 0023684 219.2694 140.6439 15.24782488161975

JSON: /api/v1/satellites/58127 · /tle

For live sub-satellite position, see the globe view (requires WebGL).

§ Visibility from observer

Set your observer location to see the next 7 days of passes ≥ 10°. The values pass through the URL so the page stays shareable.

No JS? Fill the form by hand. The geolocation button needs JavaScript.